Regional Weather Roundup
Issued by NWS State College, PA

Home | Current Version | Previous Version | Graphics & Text | Print | Product List | Glossary Off
Versions: 1 2 3 4 5 6 7 8 9 10 11 12 13 14 15 16 17 18 19 20 21 22 23 24 25 26 27 28 29 30 31 32 33 34 35 36 37 38 39 40 41 42 43 44 45 46 47 48 49 50

000
ASUS41 KCTP 311010
RWRCTP

REGIONAL WEATHER ROUNDUP
NATIONAL WEATHER SERVICE STATE COLLEGE PA
500 AM EST SAT JAN 31 2015

Note: "fair" indicates few or no clouds below 12,000 feet with no
significant weather and/or obstructions to visibility.

* = STATION THAT DOES NOT REPORT PRECIPITATION /E.G. RAIN...SNOW...ETC/
    THUNDER OR FOG.

PAZ002>004-007>009-013>016-020>023-029>032-311100-
WESTERN PENNSYLVANIA

CITY           SKY/WX    TMP DP  RH WIND       PRES   REMARKS
ERIE           CLOUDY    10   4  76 SW8       30.34F WCI  -2
MEADVILLE      CLOUDY     5   1  83 SW5       30.28F WCI  -4
FRANKLIN*      MOCLDY     1  -2  85 SW6       30.28S WCI -10
NEW CASTLE     PTSUNNY   -1  -3  91 CALM      30.35F
BEAVER COUNTY  NOT AVBL
BUTLER*        PTCLDY     1   0  92 CALM      30.32F
PITTSBURGH INT PTCLDY     5   2  87 CALM      30.32F
PITTSBURGH     MOCLDY     8   1  73 SW8       30.31F WCI  -4
INDIANA*       CLOUDY     9   5  85 W8        30.32F WCI  -4
LATROBE        PTCLDY     5   1  85 SW6       30.35F WCI  -6
WASHINGTON CO* PTCLDY     0  -6  78 CALM      30.34F
$$

PAZ004>006-010>012-017>019-024>028-033>037-041-042-045-046-049>053-311100-
CENTRAL PENNSYLVANIA

CITY           SKY/WX    TMP DP  RH WIND       PRES   REMARKS
BRADFORD       CLOUDY     7   1  76 NW7       30.16F WCI  -5
DUBOIS         CLOUDY     9   4  80 NW8       30.21F WCI  -3
CLEARFIELD     CLOUDY     9   1  70 NW8       30.23F WCI  -3
JOHNSTOWN      CLOUDY     5   1  83 W12       30.16F WCI -11
ALTOONA        CLOUDY    22   3  44 NW14      30.23S WCI   9
STATE COLLEGE  MOCLDY     9   0  66 W5        30.25S WCI   0
WILLIAMSPORT   CLEAR      7  -5  57 W13       30.28F WCI  -9
SELINSGROVE    CLEAR     10  -4  53 NW14      30.28F WCI  -6
FT INDIANTOWN  CLEAR     10  -6  48 NW15G23   30.23S WCI  -6
CAPITAL CITY   CLEAR     13  -3  49 NW13      30.26S WCI  -2
HARRISBURG     CLEAR     13  -1  54 NW15G21   30.26S WCI  -3
YORK           CLEAR     12  -2  53 NW5       30.24F WCI   4
$$

PAZ038>040-043-044-047-048-054-055-060>062-067>071-311100-
EASTERN PENNSYLVANIA

CITY           SKY/WX    TMP DP  RH WIND       PRES   REMARKS
SCRANTON       CLOUDY     8  -3  61 N10G21    30.18R WCI  -6
MOUNT POCONO   CLOUDY     3  -4  72 NW24G37   29.97R BLWGSNOWWCI -20
ALLENTOWN      CLEAR     11  -4  51 NW14G24   30.17S WCI  -5
QUAKERTOWN*    SUNNY     10  -2  56 NW12G18   30.15S WCI  -4
READING        CLEAR     11  -3  53 NW17G29   30.20S WCI  -6
LANCASTER      CLEAR     11  -5  48 NW7       30.23S WCI   0
COATESVILLE    FAIR      12   0  57 NW17G24   30.16S WCI  -5
POTTSTOWN      CLEAR     11  -3  53 NW12G21   30.19S WCI  -3
BLUE BELL      CLEAR     14   0  52 NW13G23   30.15F WCI   0
DOYLESTOWN     CLEAR     10  -2  58 NW17G29   30.13S WCI  -8
WILLOW GROVE   NOT AVBL
NORTH PHILA    CLEAR     15  -3  44 NW16G24   30.19R WCI  -1
PHILADELPHIA   CLEAR     15  -3  44 NW18G28   30.21S WCI  -2
$$


USA.gov is the U.S. government's official web portal to all federal, state and local government web resources and services.